London-Corbin, KY

6:03 PM EDT on May 26, 2018 (GMT -0400)
London-Corbin / McKee

Weather History for KLOZ - January, 2013

Change the Weather History Date:

Sunday, January 6, 2013

  Actual Average Record
Temperature  
Mean Temperature 38 °F 35 °F  
Max Temperature 44 °F 44 °F 69 °F (1998)
Min Temperature 32 °F 27 °F -1 °F (2014)
Degree Days  
Heating Degree Days 27 30  
Month to date heating degree days 191  
Cooling Degree Days 0 0  
Month to date cooling degree days 0 0  
Year to date cooling degree days 0 0  
Moisture  
Dew Point 28 °F    
Average Humidity 62    
Maximum Humidity 70    
Minimum Humidity 53    
Precipitation  
Precipitation 0.00 in 0.12 in 2.08 in (1995)
Month to date precipitation 0.21 0.70  
Year to date precipitation 0.21 0.70  
Sea Level Pressure  
Sea Level Pressure 30.20 in    
Wind  
Wind Speed 7 mph (West)    
Max Wind Speed 20 mph    
Max Gust Speed 28 mph    
Visibility 10 miles    
Events      
T = Trace of Precipitation, MM = Missing Value Source: NWS Daily Summary

Daily Weather History Graph

Daily Weather History Graph

Search for Another Location

Airport or City:

Astronomy

Jan. 06, 2013 Rise Set
Actual Time 7:50 AM EST 5:34 PM EST
Civil Twilight 7:21 AM EST 6:03 PM EST
Nautical Twilight 6:49 AM EST 6:35 PM EST
Astronomical Twilight 6:17 AM EST 7:07 PM EST
Moon 2:06 AM EST (1/6) 12:58 PM EST (1/6)
Length of Visible Light 10h 41m
Length of Day
9h 44m
Waning Crescent, 33% of the Moon is Illuminated
Jan 6
Waning Crescent
Jan 11
New
Jan 18
First Quarter
Jan 26
Full
Feb 3
Last Quarter

Hourly Weather History & Observations

Time (EST) Temp. Windchill Dew Point Humidity Pressure Visibility Wind Dir Wind Speed Gust Speed Precip Events Conditions
12:53 AM 37.0 °F 34.5 °F 27.0 °F 67% 30.21 in 10.0 mi South 3.5 mph - N/A   Overcast
1:53 AM 37.0 °F - 27.0 °F 67% 30.21 in 10.0 mi Calm Calm - N/A   Overcast
2:53 AM 37.0 °F 34.5 °F 27.0 °F 67% 30.21 in 10.0 mi SSW 3.5 mph - N/A   Overcast
3:53 AM 37.0 °F 33.3 °F 27.0 °F 67% 30.19 in 10.0 mi South 4.6 mph - N/A   Overcast
4:53 AM 37.9 °F - 27.0 °F 65% 30.18 in 10.0 mi Calm Calm - N/A   Overcast
5:53 AM 37.0 °F - 28.0 °F 70% 30.17 in 10.0 mi Calm Calm - N/A   Overcast
6:53 AM 37.9 °F 35.5 °F 27.0 °F 65% 30.18 in 10.0 mi SSW 3.5 mph - N/A   Overcast
7:53 AM 37.9 °F 34.4 °F 28.0 °F 68% 30.19 in 10.0 mi SSW 4.6 mph - N/A   Overcast
8:53 AM 37.9 °F 34.4 °F 28.9 °F 70% 30.19 in 10.0 mi SSW 4.6 mph - N/A   Overcast
9:53 AM 39.0 °F 32.3 °F 30.0 °F 70% 30.19 in 10.0 mi SW 10.4 mph - N/A   Overcast
10:53 AM 41.0 °F 34.7 °F 30.9 °F 67% 30.19 in 10.0 mi WSW 10.4 mph 17.3 mph N/A   Overcast
11:53 AM 41.0 °F 34.3 °F 30.0 °F 65% 30.17 in 10.0 mi WSW 11.5 mph - N/A   Overcast
12:53 PM 42.1 °F 37.1 °F 30.0 °F 62% 30.14 in 10.0 mi WSW 8.1 mph - N/A   Overcast
1:16 PM 42.8 °F 37.5 °F 30.2 °F 61% 30.11 in 10.0 mi SW 9.2 mph - N/A   Overcast
1:42 PM 44.6 °F 40.7 °F 30.2 °F 57% 30.09 in 10.0 mi SW 6.9 mph - N/A   Overcast
1:53 PM 44.1 °F 37.7 °F 28.9 °F 55% 30.10 in 10.0 mi SW 12.7 mph 20.7 mph N/A   Overcast
2:53 PM 44.1 °F 38.1 °F 28.9 °F 55% 30.11 in 10.0 mi West 11.5 mph - N/A   Overcast
3:53 PM 44.1 °F 39.0 °F 30.0 °F 58% 30.13 in 10.0 mi West 9.2 mph - N/A   Overcast
4:53 PM 43.0 °F 38.2 °F 30.0 °F 60% 30.15 in 10.0 mi WSW 8.1 mph - N/A   Overcast
5:53 PM 41.0 °F 33.5 °F 30.0 °F 65% 30.18 in 10.0 mi WNW 13.8 mph 21.9 mph N/A   Overcast
6:25 PM 39.2 °F 31.2 °F 30.2 °F 70% 30.19 in 10.0 mi WNW 13.8 mph 23.0 mph N/A   Overcast
6:41 PM 37.4 °F 29.3 °F 28.4 °F 70% 30.20 in 10.0 mi WNW 12.7 mph 24.2 mph N/A   Overcast
6:53 PM 37.9 °F 30.5 °F 28.0 °F 68% 30.23 in 10.0 mi WNW 11.5 mph - N/A   Overcast
7:18 PM 37.4 °F 30.8 °F 28.4 °F 70% 30.23 in 10.0 mi NW 9.2 mph - N/A   Overcast
7:42 PM 37.4 °F 29.3 °F 26.6 °F 65% 30.24 in 10.0 mi WNW 12.7 mph - N/A   Overcast
7:53 PM 37.0 °F 28.9 °F 27.0 °F 67% 30.27 in 10.0 mi NW 12.7 mph 19.6 mph N/A   Overcast
8:42 PM 35.6 °F 27.1 °F 24.8 °F 65% 30.27 in 10.0 mi WNW 12.7 mph - N/A   Overcast
8:53 PM 35.1 °F 28.6 °F 25.0 °F 67% 30.30 in 10.0 mi NW 8.1 mph - N/A   Overcast
9:53 PM 34.0 °F 28.8 °F 24.1 °F 67% 30.32 in 10.0 mi NW 5.8 mph - N/A   Overcast
10:53 PM 33.1 °F 26.1 °F 24.1 °F 70% 30.34 in 10.0 mi NNW 8.1 mph - N/A   Overcast
11:53 PM 32.0 °F 25.6 °F 21.9 °F 66% 30.36 in 10.0 mi NW 6.9 mph - N/A   Overcast